{"data":{"norad_id":48286,"intl_designator":"2021-036L","name":"STARLINK-2547","alt_names":[],"object_type":"PAYLOAD","status":"ACTIVE","operator":null,"country":"US","launch_date":"2021-04-29","launch_site_code":"AFETR","launch_vehicle":null,"mission":null,"orbit_class":"UNKNOWN","rcs_meters":null,"size_class":null,"mass_kg":null,"dimensions":null,"purposes":["comms"],"wikipedia_slug":null,"has_3d_model":false,"image_url":null,"decayed_at":null,"tle_current":{"epoch":"2026-09-19T23:19:37.726752Z","epoch_age_seconds":79263,"freshness":"FRESH","line1":"1 48286U 21036L   26262.97196443  .00000704  00000+0  34471-4 0  9994","line2":"2 48286  53.1591 251.2946 0001401  68.4211 291.6940 15.31695602298177","mean_motion":15.31695602,"eccentricity":0.0001401,"inclination_deg":53.1591,"raan_deg":251.2946,"arg_perigee_deg":68.4211,"mean_anomaly_deg":291.694,"bstar":3.4471e-5,"rev_number":29817,"period_min":94.013457903759,"perigee_km":469.79357596239,"apogee_km":471.71263496994,"semimajor_km":6848.8901054662,"source":"CELESTRAK","updated_at":"2026-09-20T09:00:38.929245Z"}}}